Вернуться в каталог

USA 454

АктивенВоенныеVLEO
NORAD 62353·PAYLOAD·🇺🇸 United States

Запущен Dec 17, 2024 с Vandenberg Space Force Base

Loading…

Ближайшие Пролёты (ближайшие 24 часа)

TLE

УстаревшееSource: Mike McCants

Эпоха: Aug 21, 2026, 20:19 UTC

1 62353U 24243P   26233.84669245 0.00000000  00000-0  00000-0 0    07
2 62353  70.0190 132.1399 0004000 257.8750 102.1249 14.96713399    05

Отслеживайте USA 454 в реальном времени с AllMySat

Download on the App Store